Regional Weather Roundup
Issued by NWS

Home | Current Version | Previous Version | Graphics & Text | Print | Product List | Glossary On
Versions: 1 2 3 4 5 6 7 8 9 10 11 12 13 14 15 16 17 18 19 20 21 22 23 24 25 26 27 28 29 30 31 32 33 34 35 36 37 38 39 40 41 42 43 44 45 46 47 48 49 50
526
ASUS43 KDTX 240710
RWRMI
MICHIGAN HOURLY REGIONAL WEATHER ROUNDUP
NATIONAL WEATHER SERVICE DETROIT/PONTIAC MI
200 AM EST FRI NOV 24 2017

NOTE: "FAIR" INDICATES FEW OR NO CLOUDS BELOW 12,000 FEET WITH NO
SIGNIFICANT WEATHER AND/OR OBSTRUCTION TO VISIBILITY.

MIZ047>049-052>055-059>063-066>070-074>076-081>083-240800-
SOUTHEAST LOWER MICHIGAN

CITY           SKY/WX    TMP DP  RH WIND       PRES   REMARKS
ADRIAN         CLEAR     30  24  78 W5        29.93S WCI  25
ALMA           CLEAR     32  27  81 S8        29.86S WCI  25
ANN ARBOR      CLEAR     25  23  92 S3        29.92S
BAD AXE        CLEAR     29  23  77 S6        29.87F WCI  23
CARO           CLEAR     30  22  74 CALM      29.87F
DETROIT CITY   CLEAR     34  25  69 SW6       29.93S WCI  29
DETROIT        PTCLDY    32  25  75 SW6       29.94R WCI  26
FLINT          CLEAR     34  23  64 S9        29.88F WCI  27
GROSSE ILE     CLEAR     35  27  74 SW6       29.93R WCI  30
HILLSDALE      CLEAR     32  23  69 S7        29.89F WCI  26
HOWELL         CLEAR     32  25  73 S5        29.88F WCI  28

CITY           SKY/WX    TMP DP  RH WIND       PRES   REMARKS
JACKSON        CLEAR     34  22  61 S6        29.89F WCI  29
LAMBERTVILLE   CLEAR     34  26  72 SW3       29.93S
LANSING        CLEAR     34  25  69 S8        29.87F WCI  27
LAPEER         FAIR      33  24  70 SW6       29.88F WCI  28
MASON          CLEAR     32  26  77 CALM      29.87F
MONROE         CLEAR     32  26  77 CALM      29.93R
MT. CLEMENS    CLEAR     34  26  70 SW7       29.90S WCI  28
PONTIAC        MOCLDY    32  24  72 S5        29.89F WCI  27
PORT HOPE        N/A     33  22  63 VRB3      29.85F
PORT HURON     CLOUDY    36  23  60 CALM      29.92S
TRI CITIES     CLEAR     32  25  75 S7        29.87F WCI  26
MIDLAND        FAIR      28  24  86 CALM      29.84F
TROY           CLEAR     35  25  66 SW5       29.93F WCI  31
SAGINAW HB     CLEAR     32  27  80 S7        29.86F WCI  26
$$
MIZ043>046-050>051-056>058-064>065-071>073-077>080-240800-
SOUTHWEST LOWER MICHIGAN

CITY           SKY/WX    TMP DP  RH WIND       PRES   REMARKS
BATTLE CREEK   CLEAR     33  24  69 SW9       29.88F WCI  25
BENTON HARBOR  CLEAR     35  25  66 S8        29.87F WCI  29
BIG RAPIDS     CLEAR     27  26  94 SE3       29.80F
COLDWATER      CLEAR     33  23  65 SW6       29.89F WCI  28
FREMONT        FAIR      30  28  90 S3        29.82F
HOLLAND        CLEAR     33  27  78 S9        29.86F WCI  25
GRAND RAPIDS   CLEAR     34  27  75 S7        29.86S WCI  28
IONIA          FAIR      33  26  74 SW6       29.86R WCI  28
KALAMAZOO      CLEAR     32  23  69 SW7       29.88F WCI  26
LUDINGTON      PTCLDY    39  30  70 S10       29.77F WCI  32
MARSHALL       CLEAR     33  23  65 S5        29.88F WCI  29
MOUNT PLEASANT CLEAR     32  26  77 S3        29.83F
MUSKEGON       CLEAR     42  31  64 SW12      29.83F
SOUTH HAVEN    CLEAR     35  26  70 S6        29.87F WCI  30
$$
MIZ016>042-240800-
NORTHERN LOWER MICHIGAN

CITY           SKY/WX    TMP DP  RH WIND       PRES   REMARKS
ALPENA         CLEAR     31  26  82 SW3       29.79F
BEAVER ISLAND  DRIZZLE   41  35  78 S12G18    29.70F
BELLAIRE       PTCLDY    33  29  85 CALM      29.77F
CADILLAC       CLEAR     32  28  84 S12       29.74F WCI  23
CHARLEVOIX     MOCLDY    35  29  79 S10G17    29.75F WCI  27
FRANKFORT      CLEAR     38  31  74 S6        29.75F WCI  34
GAYLORD        MOCLDY    30  23  75 SW8       29.74F WCI  22
GRAYLING       MOCLDY    30  24  79 CALM      29.78F
HARBOR SPRINGS CLOUDY    35  28  74 SW9G18    29.74F WCI  28
HOUGHTON LAKE  CLEAR     32  26  78 SW10      29.78F WCI  24
MANISTEE       CLEAR     29  25  85 E3        29.78F
OSCODA         CLEAR     30  25  81 S6        29.80F WCI  24
PELLSTON       CLOUDY    35  27  72 S6        29.74F WCI  30
ROGERS CITY    MOCLDY    32  26  79 S7        29.78F WCI  26
TRAVERSE CITY  MOCLDY    36  27  69 S3        29.76F
$$
MIZ007>008-015-240800-
EASTERN UPPER MICHIGAN

CITY           SKY/WX    TMP DP  RH WIND       PRES   REMARKS
KINROSS        CLOUDY    34  29  82 S10       29.71F WCI  26
MACKINAC ISLAN CLOUDY    37  28  70 S8        29.72F WCI  30
NEWBERRY       CLOUDY    36  33  88 S9        29.65F WCI  29
S. S. MARIE    CLOUDY    35  28  75 S6        29.70F WCI  30
MUNISING         N/A     38  28  67 S10       29.58F WCI  31
$$
MIZ004>006-011>014-085-240800-
CENTRAL UPPER MICHIGAN

CITY           SKY/WX    TMP DP  RH WIND       PRES   REMARKS
MANISTIQUE     CLOUDY    40  28  61 SW17G26   29.66F WCI  31
ESCANABA       LGT RAIN  39  31  72 S16G22    29.63F WCI  30
MENOMINEE      CLOUDY    38  28  67 SW13      29.67F WCI  30
SAWYER-GWINN   CLOUDY    33  26  76 S16       29.57F WCI  22
$$
MIZ001>003-009>011-084-240800-
WESTERN UPPER MICHIGAN

CITY           SKY/WX    TMP DP  RH WIND       PRES   REMARKS
IRON MOUNTAIN  CLOUDY    34  23  64 S7        29.59F WCI  28
HOUGHTON       CLOUDY    34  26  72 S5        29.45F WCI  30
COPPER HARBOR    N/A     39  27  62 W13G23    29.45F WCI  31
IRONWOOD       CLOUDY    42  28  57 S20       29.44F
$$

ABBREVIATIONS USED IN REMARKS
   TC - TEMPERATURE IN CELSIUS
  WCI - WIND CHILL INDEX
   HX - HEAT INDEX
  VSB - VISIBILITY





USA.gov is the U.S. government's official web portal to all federal, state and local government web resources and services.